[[{"header":{"parameterUnit":"m.s-1","parameterCategory":1,"la1":30.2991,"la2":30.254,"lo1":-89.0895,"lo2":-89.0444,"dy":0.0017,"dx":0.0017,"nx":28,"ny":28,"refTime":"2024-07-06T09:00:00:Z","depth":0,"parameterNumber":2,"parameterNumberName":"U-component_of_WINDS"},"data":[0,0,0,0,0,0,0,0,0,0,0,0,0,0,0,0,0,0,0,0,0,0,0,0,0,0,0,0,0,0,0,0,0,0,0,0,0,0,0,0,0,0,0,0,0,0,0,0,0,0,0,0,0,0,0,0,0,0,-0.0636,-0.0636,0,-0.0605,-0.0604,-0.0604,-0.059,-0.0591,-0.0591,-0.0591,-0.0558,-0.0557,-0.0556,0,0,0,0,0,0,0,0,0,0,0,0,0,-0.0686,-0.0686,-0.0636,-0.0636,-0.0635,-0.0605,-0.0604,-0.0604,-0.059,-0.0591,-0.0591,-0.0591,-0.0559,-0.0558,-0.0556,0,0,0,0,0,0,0,0,0,0,0,0,0,-0.0661,-0.0685,-0.0636,-0.0625,-0.0624,-0.0605,-0.0604,-0.0604,-0.059,-0.0591,-0.0591,-0.0591,-0.0559,-0.0558,-0.0556,-0.0546,0,0,-0.0552,-0.0551,0,0,0,0,0,0,0,0,-0.0662,-0.0659,-0.0627,-0.0626,-0.0624,-0.0602,-0.061,-0.0584,-0.059,-0.0603,-0.0591,-0.0591,-0.0573,-0.057,-0.0564,-0.0544,-0.0543,-0.0552,-0.0551,-0.0551,-0.055,0,0,0,0,0,0,0,-0.0664,-0.066,-0.0624,-0.0627,-0.0625,-0.0622,-0.0619,-0.0605,-0.0588,-0.0602,-0.0601,-0.0597,-0.0572,-0.0565,-0.0563,-0.0543,-0.0552,-0.0551,-0.055,-0.0549,-0.0515,-0.0515,0,0,0,0,0,0,-0.0667,-0.0662,-0.0625,-0.0623,-0.0644,-0.0621,-0.0617,-0.0609,-0.0588,-0.0585,-0.0597,-0.0597,-0.0568,-0.0565,-0.0562,-0.055,-0.0551,-0.0549,-0.0548,-0.0515,-0.0515,-0.0515,0,0,0,0,0,0,-0.0669,-0.0664,-0.0626,-0.0642,-0.0637,-0.062,-0.0611,-0.0608,-0.0602,-0.0584,-0.0581,-0.0594,-0.0568,-0.0564,-0.0551,-0.0548,-0.0549,-0.0547,-0.0515,-0.0515,-0.0515,-0.0525,0,0,0,0,0,0,-0.067,-0.0665,-0.066,-0.0642,-0.0636,-0.0615,-0.0611,-0.0607,-0.0599,-0.0598,-0.058,-0.0577,-0.0567,-0.0553,-0.0549,-0.0547,-0.0546,-0.0515,-0.0515,-0.0515,-0.0524,-0.0525,-0.0525,0,0,0,0,0,-0.0672,-0.0664,-0.066,-0.0656,-0.063,-0.0614,-0.0611,-0.06,-0.0599,-0.0595,-0.0584,-0.0578,-0.0549,-0.0551,-0.0547,-0.0544,-0.0516,-0.0515,-0.0515,-0.0524,-0.0525,-0.0525,0,0,0,0,0,0,-0.0682,-0.0661,-0.0657,-0.0642,-0.063,-0.0612,-0.0606,-0.0601,-0.0588,-0.0588,-0.0575,-0.0571,-0.0559,-0.055,-0.0553,-0.0534,-0.0532,-0.0531,-0.054,-0.0541,-0.0541,-0.0543,-0.0545,0,0,0,0,0,-0.0682,-0.0671,-0.0654,-0.0643,-0.0637,-0.0623,-0.0616,-0.0608,-0.0595,-0.059,-0.0578,-0.0566,-0.0555,-0.0547,-0.0535,-0.0523,-0.052,-0.0519,-0.052,-0.052,-0.0519,-0.0514,-0.0514,-0.0514,-0.0514,-0.0514,0,0,-0.0683,-0.067,-0.0664,-0.0644,-0.0634,-0.0624,-0.0618,-0.0607,-0.0599,-0.0588,-0.0575,-0.0566,-0.0552,-0.054,-0.0534,-0.0532,-0.0519,-0.052,-0.052,-0.0519,-0.0514,-0.0514,-0.0514,-0.0514,-0.0514,-0.0514,0,0,-0.0679,-0.0668,-0.0658,-0.0649,-0.0634,-0.0625,-0.0623,-0.0606,-0.06,-0.0586,-0.0578,-0.0569,-0.0549,-0.054,-0.0532,-0.0528,-0.0522,-0.0524,-0.0526,-0.0521,-0.0521,-0.0521,-0.052,-0.052,-0.0523,-0.0523,-0.0523,0,-0.0682,-0.0665,-0.0654,-0.0644,-0.0636,-0.0626,-0.0617,-0.0608,-0.059,-0.0585,-0.0584,-0.056,-0.0549,-0.0535,-0.0534,-0.0528,-0.0526,-0.0526,-0.0522,-0.0522,-0.0521,-0.052,-0.052,-0.0524,-0.0524,-0.0524,-0.0524,0,-0.067,-0.0659,-0.0653,-0.0637,-0.0628,-0.0619,-0.0607,-0.06,-0.0594,-0.0585,-0.0573,-0.056,-0.0546,-0.0543,-0.0536,-0.0528,-0.0528,-0.0524,-0.0522,-0.0522,-0.0521,-0.052,-0.0525,-0.0524,-0.0524,-0.0524,0,0,-0.067,-0.0649,-0.0647,-0.0641,-0.0624,-0.0616,-0.0606,-0.0593,-0.0588,-0.0576,-0.0569,-0.0553,-0.055,-0.0542,-0.0535,-0.053,-0.0528,-0.0527,-0.0527,-0.0528,-0.0521,-0.0524,-0.0523,-0.0525,-0.0525,-0.0524,-0.0522,0,-0.0665,-0.0647,-0.0638,-0.0625,-0.0615,-0.0607,-0.0599,-0.0588,-0.058,-0.0571,-0.0563,-0.0552,-0.0549,-0.0544,-0.0539,-0.053,-0.0527,-0.053,-0.0518,-0.0518,-0.0522,-0.0523,-0.0525,-0.0524,-0.0521,-0.0521,-0.0521,0,-0.0656,-0.0645,-0.0631,-0.0618,-0.0613,-0.0606,-0.0595,-0.0586,-0.0575,-0.0569,-0.0561,-0.0554,-0.0545,-0.0543,-0.0531,-0.0533,-0.0528,-0.0523,-0.0522,-0.0521,-0.052,-0.0522,-0.0523,-0.0523,-0.052,-0.052,-0.0521,0,-0.0659,-0.0641,-0.0631,-0.0625,-0.0609,-0.0604,-0.0597,-0.0586,-0.0579,-0.0569,-0.0565,-0.0554,-0.0548,-0.054,-0.0531,-0.053,-0.0519,-0.0517,-0.0515,-0.0516,-0.0513,-0.0514,-0.0514,-0.0509,-0.0509,-0.0509,-0.0509,0,-0.0654,-0.0646,-0.0632,-0.0626,-0.0617,-0.0607,-0.0598,-0.0591,-0.0581,-0.0574,-0.0566,-0.0559,-0.0547,-0.0539,-0.0532,-0.0523,-0.052,-0.0516,-0.0514,-0.0517,-0.0518,-0.0514,-0.0514,-0.0509,-0.0509,-0.0509,-0.0509,0,-0.0655,-0.0646,-0.0634,-0.062,-0.0617,-0.0611,-0.0599,-0.0593,-0.0586,-0.0577,-0.0574,-0.0562,-0.0553,-0.0543,-0.0529,-0.0524,-0.0516,-0.0513,-0.052,-0.0519,-0.0519,-0.0519,-0.0517,-0.0516,-0.0512,-0.0512,-0.0512,0,-0.0653,-0.0647,-0.0633,-0.0628,-0.0621,-0.0612,-0.0606,-0.0596,-0.059,-0.0578,-0.0574,-0.0564,-0.0555,-0.054,-0.0531,-0.0521,-0.0518,-0.0518,-0.0517,-0.052,-0.0519,-0.052,-0.052,-0.0518,-0.0519,-0.0519,-0.0519,0,-0.065,-0.0646,-0.0637,-0.0628,-0.062,-0.0612,-0.0603,-0.0599,-0.0588,-0.0582,-0.0572,-0.0566,-0.0553,-0.0544,-0.0533,-0.0526,-0.0521,-0.0519,-0.0519,-0.0521,-0.0526,-0.0524,-0.0522,-0.0519,-0.0519,-0.0519,-0.0519,-0.0519,-0.065,-0.0645,-0.0635,-0.0626,-0.0619,-0.0611,-0.0605,-0.0598,-0.059,-0.0579,-0.0574,-0.0564,-0.0555,-0.054,-0.0534,-0.0527,-0.0525,-0.0524,-0.0523,-0.0523,-0.0525,-0.0527,-0.0525,-0.0525,-0.0525,-0.0525,-0.0524,0,-0.0648,-0.0641,-0.0633,-0.0622,-0.0615,-0.0611,-0.0602,-0.0597,-0.0589,-0.058,-0.0573,-0.0562,-0.0554,-0.0544,-0.0535,-0.0531,-0.0528,-0.0529,-0.0529,-0.0528,-0.0526,-0.0528,-0.0531,-0.0531,-0.0531,-0.0531,-0.0531,-0.0531,-0.0646,-0.0637,-0.0632,-0.0621,-0.0614,-0.0605,-0.0601,-0.0594,-0.0588,-0.0577,-0.057,-0.0564,-0.0555,-0.0545,-0.0537,-0.0535,-0.0532,-0.0534,-0.053,-0.0529,-0.0528,-0.0528,-0.0529,-0.0533,-0.0533,-0.0533,-0.0533,-0.0533]},{"header":{"parameterUnit":"m.s-1","parameterCategory":1,"la1":30.2991,"la2":30.254,"lo1":-89.0895,"lo2":-89.0444,"dy":0.0017,"dx":0.0017,"nx":28,"ny":28,"refTime":"2024-07-06T09:00:00:Z","depth":0,"parameterNumber":3,"parameterNumberName":"V-component_of_WINDS"},"data":[0,0,0,0,0,0,0,0,0,0,0,0,0,0,0,0,0,0,0,0,0,0,0,0,0,0,0,0,0,0,0,0,0,0,0,0,0,0,0,0,0,0,0,0,0,0,0,0,0,0,0,0,0,0,0,0,0,0,4.6012,4.6013,0,4.6079,4.608,4.6081,4.6015,4.6013,4.601,4.6008,4.6071,4.6075,4.6079,0,0,0,0,0,0,0,0,0,0,0,0,0,4.5821,4.5825,4.6012,4.6013,4.6014,4.6079,4.608,4.6081,4.6016,4.6013,4.6009,4.6007,4.607,4.6075,4.608,0,0,0,0,0,0,0,0,0,0,0,0,0,4.5898,4.5826,4.6012,4.5989,4.5988,4.6079,4.608,4.6081,4.6016,4.6013,4.6009,4.6005,4.6068,4.6074,4.608,4.6196,0,0,4.6099,4.6102,0,0,0,0,0,0,0,0,4.5894,4.5905,4.5992,4.5991,4.599,4.6035,4.6036,4.6119,4.6017,4.6006,4.6008,4.6003,4.6062,4.6068,4.6089,4.6198,4.6201,4.61,4.6103,4.6106,4.6108,0,0,0,0,0,0,0,4.5888,4.5902,4.6039,4.5993,4.5992,4.5974,4.598,4.6052,4.6054,4.6006,4.6002,4.6011,4.6061,4.6084,4.609,4.6202,4.6099,4.6105,4.6109,4.6111,4.6406,4.641,0,0,0,0,0,0,4.5886,4.5898,4.6037,4.6041,4.5931,4.598,4.5988,4.6024,4.6054,4.6054,4.6014,4.6007,4.6075,4.6083,4.6092,4.6227,4.6106,4.6112,4.6115,4.6402,4.6407,4.6412,0,0,0,0,0,0,4.5883,4.5899,4.6034,4.5968,4.5984,4.5988,4.6029,4.6028,4.6051,4.6059,4.6059,4.6037,4.6072,4.6084,4.617,4.6229,4.6114,4.612,4.6397,4.6404,4.641,4.65,0,0,0,0,0,0,4.5877,4.5898,4.5944,4.597,4.5988,4.6113,4.6033,4.6032,4.6062,4.6054,4.6081,4.6082,4.607,4.6161,4.6176,4.6235,4.6125,4.6392,4.64,4.6408,4.6491,4.6508,4.6523,0,0,0,0,0,4.5871,4.5966,4.5947,4.5964,4.6045,4.6116,4.6126,4.6112,4.6067,4.6112,4.6117,4.6081,4.622,4.6171,4.6187,4.6249,4.6388,4.6398,4.6407,4.6484,4.6505,4.6522,0,0,0,0,0,0,4.5946,4.5969,4.5948,4.6055,4.6084,4.6105,4.6161,4.6135,4.6176,4.6167,4.6146,4.6153,4.6244,4.6255,4.6199,4.636,4.6296,4.631,4.635,4.6369,4.6385,4.6379,4.613,0,0,0,0,0,4.5975,4.6033,4.6049,4.6142,4.6158,4.6157,4.6188,4.6175,4.6204,4.6215,4.6227,4.6255,4.6304,4.6338,4.6384,4.6493,4.6496,4.6543,4.6559,4.6571,4.6582,4.6638,4.6659,4.6443,4.6443,4.6442,0,0,4.6035,4.6055,4.6093,4.6158,4.6179,4.6237,4.6168,4.6233,4.6276,4.6224,4.6307,4.6317,4.6346,4.6444,4.6487,4.6456,4.6643,4.6583,4.6593,4.6598,4.665,4.6671,4.6689,4.6449,4.6448,4.6447,0,0,4.6175,4.6197,4.6275,4.6298,4.6332,4.6331,4.635,4.6375,4.6379,4.6462,4.6424,4.6473,4.656,4.6582,4.6605,4.6752,4.6719,4.6767,4.6848,4.6903,4.692,4.6935,4.6985,4.7004,4.6779,4.6779,4.6779,0,4.6245,4.6334,4.6319,4.6387,4.6415,4.6373,4.6451,4.6473,4.6519,4.6539,4.6503,4.661,4.6627,4.6728,4.6764,4.6785,4.6803,4.6764,4.6919,4.6934,4.6948,4.6995,4.7015,4.6784,4.6784,4.6783,4.6783,0,4.6417,4.6479,4.6538,4.6585,4.662,4.6693,4.6687,4.6724,4.6707,4.6709,4.6792,4.6811,4.686,4.6883,4.6867,4.6981,4.696,4.6923,4.6858,4.6974,4.7018,4.7037,4.6792,4.679,4.6788,4.6787,0,0,4.6606,4.6644,4.6665,4.6685,4.6719,4.6765,4.6835,4.6884,4.6915,4.6948,4.7004,4.7078,4.7042,4.7068,4.7054,4.7103,4.7215,4.7058,4.7058,4.7085,4.734,4.7367,4.7389,4.7194,4.7198,4.7201,4.7337,0,4.6745,4.6868,4.6855,4.6971,4.7026,4.6986,4.7046,4.7072,4.7076,4.7121,4.7124,4.7176,4.7126,4.7141,4.7188,4.7192,4.7266,4.7182,4.7244,4.7246,4.7237,4.7412,4.7442,4.757,4.7354,4.7357,4.7359,0,4.6924,4.6964,4.7086,4.7109,4.7132,4.7187,4.7229,4.7275,4.7302,4.7301,4.7329,4.7306,4.7374,4.7309,4.74,4.7343,4.7367,4.7373,4.7378,4.7382,4.7309,4.7419,4.761,4.7629,4.7387,4.7385,4.7383,0,4.7047,4.7132,4.7215,4.7233,4.7264,4.7302,4.7316,4.734,4.737,4.7407,4.7425,4.7469,4.7493,4.7526,4.7515,4.7469,4.7608,4.7542,4.7606,4.7607,4.7636,4.7634,4.7832,4.7655,4.7655,4.7654,4.7654,0,4.7202,4.7278,4.727,4.7321,4.7404,4.7388,4.7469,4.7478,4.7499,4.755,4.7518,4.7565,4.7548,4.7594,4.7585,4.766,4.7672,4.7671,4.7667,4.7673,4.7673,4.7688,4.7678,4.7659,4.7658,4.7657,4.7657,0,4.7353,4.7352,4.7439,4.7461,4.7468,4.7527,4.7545,4.7591,4.7592,4.7656,4.767,4.767,4.7722,4.7714,4.7772,4.7766,4.786,4.7846,4.7851,4.7847,4.7911,4.7905,4.8124,4.8151,4.7958,4.796,4.7962,0,4.7452,4.7509,4.7537,4.7569,4.7586,4.7639,4.7669,4.7655,4.7687,4.7722,4.7764,4.7814,4.7852,4.7937,4.7941,4.7984,4.7971,4.8044,4.7977,4.798,4.7969,4.7966,4.797,4.8057,4.806,4.8061,4.8063,0,4.7627,4.7623,4.7669,4.7715,4.7752,4.7787,4.7818,4.7845,4.7834,4.7872,4.7925,4.7956,4.8015,4.8063,4.8104,4.8115,4.8087,4.8084,4.8101,4.8107,4.8107,4.8106,4.7886,4.8079,4.8077,4.8076,4.8075,4.8075,4.7754,4.7802,4.7829,4.7881,4.7903,4.7932,4.7977,4.7983,4.8029,4.8076,4.8065,4.8125,4.8149,4.82,4.8217,4.8262,4.8234,4.8259,4.8265,4.8271,4.8278,4.8101,4.8269,4.8269,4.8268,4.8268,4.8268,0,4.7926,4.7941,4.7989,4.8034,4.8074,4.8045,4.8078,4.8112,4.8166,4.8192,4.8231,4.8291,4.8338,4.8346,4.839,4.8424,4.8412,4.8436,4.8432,4.8435,4.8301,4.8281,4.8445,4.8445,4.8445,4.8445,4.8445,4.8445,4.802,4.8099,4.8098,4.8188,4.8202,4.8262,4.8282,4.8309,4.8329,4.8398,4.8438,4.8443,4.8461,4.8505,4.8546,4.8547,4.8564,4.8593,4.8588,4.8463,4.8445,4.8428,4.8409,4.8597,4.8597,4.8718,4.872,4.872]}]]